{"data":{"norad_id":59799,"epoch":"2026-09-21T04:45:08.858880Z","epoch_age_seconds":114182,"freshness":"FRESH","line1":"1 59799U 24093T   26264.19801920  .00000229  00000+0  17857-4 0  9991","line2":"2 59799  43.0013 184.9553 0001259 262.1081  97.9628 15.27578947132590","mean_motion":15.27578947,"eccentricity":0.0001259,"inclination_deg":43.0013,"raan_deg":184.9553,"arg_perigee_deg":262.1081,"mean_anomaly_deg":97.9628,"bstar":1.7857e-5,"rev_number":13259,"period_min":94.26681369418,"perigee_km":482.18842537582,"apogee_km":483.91607282874,"semimajor_km":6861.1892491023,"source":"CELESTRAK","updated_at":"2026-09-22T09:00:49.074321Z"}}